QPF
0.00 0.00 0.00 0.00 0.00 0.00 0.00 0.00 0.00 0.00 0.00 0.00 0.00 0.00 0.00 0.00 0.00 0.00 0.00 0.00 0.00 0.00 0.00 0.00 0.00 0.00 0.00 0.00 0.00 0.00 0.00 0.00 0.00 0.01 0.03 0.01 0.00 0.00 0.00 0.00 0.00 0.00 0.00 0.00
0.00 0.00 0.00 0.00 0.00 0.00 0.00 0.00 0.00 0.00 0.00 0.00 0.00 0.00 0.00 0.00 0.00 0.00 0.00 0.00 0.00 0.00 0.00 0.00 0.00 0.00 0.00 0.00 0.00 0.00 0.00 0.00 0.00 0.00 0.00 0.00 0.00 0.00 0.00 0.00 0.00 0.00 0.00 0.00
0.00 0.00 0.00 0.00 0.00 0.00 0.00 0.00 0.00 0.00 0.00 0.00 0.00 0.00 0.00 0.00 0.00 0.00 0.00 0.00 0.00 0.00 0.00 0.00 0.00 0.00 0.00 0.00 0.00 0.00 0.00 0.00 0.00 0.00 0.00 0.00 0.00 0.00 0.00 0.00 0.00 0.00 0.00 0.00
0.00 0.00 0.00 0.00 0.00 0.00 0.00 0.00 0.00 0.00 0.00 0.00 0.00 0.00 0.00 0.00 0.00 0.00 0.00 0.00 0.00 0.00 0.00 0.00 0.00 0.00 0.00 0.00 0.00 0.00 0.00 0.00 0.00 0.00 0.00 0.00 0.00 0.00 0.00 0.00 0.00 0.00 0.00 0.00
0.00 0.00 0.00 0.00 0.00 0.00 0.00 0.00 0.00 0.00 0.00 0.00 0.00 0.00 0.00 0.00 0.00 0.00 0.00 0.00 0.00 0.00 0.00 0.00 0.00 0.00 0.00 0.00 0.00 0.00 0.00 0.00 0.00 0.00 0.00 0.00 0.00 0.00 0.00 0.00 0.00 0.00 0.00 0.01
0.00 0.00 0.00 0.00 0.00 0.00 0.00 0.00 0.00 0.00 0.00 0.00 0.00 0.00 0.00 0.00 0.00 0.00 0.00 0.00 0.00 0.00 0.00 0.00 0.00 0.00 0.00 0.00 0.00 0.00 0.00 0.00 0.00 0.00 0.00 0.00 0.00 0.00 0.00 0.00 0.00 0.00 0.00 0.01
0.00 0.00 0.00 0.00 0.00 0.00 0.00 0.00 0.00 0.00 0.00 0.00 0.00 0.00 0.00 0.00 0.00 0.00 0.00 0.00 0.00 0.00 0.00 0.00 0.00 0.00 0.00 0.00 0.00 0.00 0.00 0.00 0.00 0.00 0.00 0.00 0.00 0.00 0.00 0.00 0.00 0.00 0.00 0.00
0.00 0.00 0.00 0.00 0.00 0.00 0.00 0.00 0.00 0.00 0.00 0.00 0.00 0.00 0.00 0.00 0.00 0.00 0.00 0.00 0.00 0.00 0.00 0.00 0.00 0.00 0.00 0.00 0.00 0.00 0.00 0.00 0.00 0.00 0.00 0.00 0.00 0.00 0.00 0.00 0.00 0.00 0.00 0.00
0.00 0.00 0.00 0.00 0.00 0.00 0.00 0.00 0.00 0.00 0.00 0.00 0.00 0.00 0.00 0.00 0.00 0.00 0.00 0.00 0.00 0.00 0.00 0.00 0.00 0.00 0.00 0.00 0.00 0.00 0.00 0.00 0.00 0.00 0.00 0.00 0.00 0.00 0.00 0.00 0.00 0.00 0.00 0.00
0.00 0.00 0.00 0.00 0.00 0.00 0.00 0.00 0.00 0.00 0.03 0.01 0.00 0.00 0.00 0.00 0.00 0.00 0.00 0.00 0.00 0.00 0.00 0.00 0.00 0.00 0.00 0.00 0.00 0.00 0.00 0.00 0.00 0.00 0.00 0.00 0.00 0.00 0.00 0.00 0.00 0.00 0.00 0.00
0.00 0.00 0.00 0.00 0.00 0.00 0.00 0.00 0.00 0.01 0.00 0.02 0.01 0.00 0.00 0.00 0.00 0.00 0.00 0.00 0.00 0.00 0.00 0.00 0.00 0.00 0.00 0.00 0.00 0.00 0.00 0.00 0.00 0.00 0.00 0.00 0.00 0.00 0.00 0.00 0.00 0.00 0.00 0.00
0.00 0.01 0.01 0.00 0.00 0.00 0.00 0.00 0.00 0.03 0.02 0.02 0.04 0.01 0.00 0.00 0.00 0.00 0.00 0.00 0.00 0.00 0.00 0.00 0.00 0.00 0.00 0.00 0.00 0.00 0.00 0.00 0.00 0.00 0.00 0.00 0.00 0.00 0.00 0.01 0.01 0.00 0.00 0.01
0.00 0.01 0.01 0.00 0.00 0.00 0.00 0.00 0.00 0.01 0.02 0.02 0.04 0.01 0.00 0.00 0.00 0.00 0.00 0.00 0.00 0.00 0.00 0.00 0.00 0.00 0.00 0.00 0.00 0.00 0.00 0.00 0.00 0.00 0.00 0.00 0.00 0.00 0.00 0.01 0.01 0.01 0.00 0.01
0.00 0.00 0.01 0.01 0.00 0.00 0.00 0.00 0.00 0.00 0.01 0.02 0.01 0.00 0.00 0.00 0.00 0.00 0.00 0.00 0.00 0.00 0.00 0.00 0.00 0.00 0.00 0.00 0.00 0.00 0.00 0.00 0.00 0.00 0.00 0.00 0.00 0.00 0.00 0.00 0.01 0.03 0.01 0.03
0.00 0.01 0.00 0.00 0.00 0.00 0.00 0.00 0.00 0.00 0.00 0.00 0.00 0.00 0.00 0.00 0.00 0.00 0.00 0.00 0.00 0.00 0.00 0.00 0.00 0.00 0.00 0.00 0.00 0.00 0.00 0.00 0.00 0.00 0.00 0.00 0.00 0.00 0.00 0.00 0.00 0.02 0.05 0.04
0.01 0.01 0.01 0.00 0.00 0.00 0.00 0.00 0.00 0.00 0.00 0.00 0.00 0.00 0.00 0.00 0.00 0.00 0.00 0.00 0.00 0.00 0.00 0.00 0.00 0.00 0.00 0.00 0.00 0.00 0.00 0.00 0.00 0.00 0.00 0.00 0.00 0.00 0.00 0.00 0.00 0.00 0.00 0.02
0.02 0.03 0.03 0.02 0.02 0.02 0.01 0.00 0.00 0.00 0.00 0.00 0.00 0.00 0.00 0.00 0.00 0.00 0.00 0.00 0.00 0.00 0.00 0.00 0.00 0.00 0.00 0.00 0.00 0.00 0.00 0.00 0.00 0.00 0.00 0.00 0.00 0.00 0.00 0.00 0.00 0.01 0.00 0.00
0.00 0.01 0.03 0.01 0.01 0.01 0.00 0.00 0.00 0.00 0.00 0.00 0.00 0.00 0.00 0.00 0.00 0.00 0.00 0.00 0.00 0.00 0.00 0.00 0.00 0.00 0.00 0.00 0.00 0.00 0.00 0.00 0.00 0.00 0.00 0.00 0.00 0.00 0.00 0.00 0.00 0.00 0.02 0.02
0.00 0.02 0.01 0.02 0.02 0.01 0.00 0.01 0.00 0.01 0.01 0.00 0.00 0.00 0.00 0.00 0.00 0.00 0.00 0.00 0.00 0.00 0.00 0.00 0.00 0.00 0.00 0.00 0.00 0.00 0.00 0.00 0.00 0.00 0.00 0.00 0.00 0.00 0.00 0.00 0.00 0.00 0.00 0.01
0.03 0.04 0.01 0.02 0.05 0.02 0.07 0.02 0.00 0.00 0.02 0.01 0.00 0.00 0.00 0.00 0.00 0.00 0.00 0.00 0.00 0.00 0.00 0.00 0.00 0.00 0.00 0.00 0.00 0.00 0.00 0.00 0.00 0.00 0.00 0.00 0.00 0.00 0.00 0.00 0.00 0.00 0.00 0.00
0.04 0.03 0.01 0.01 0.03 0.02 0.05 0.03 0.00 0.02 0.03 0.00 0.00 0.00 0.00 0.00 0.00 0.00 0.00 0.00 0.00 0.00 0.00 0.00 0.00 0.00 0.00 0.00 0.00 0.00 0.00 0.00 0.00 0.00 0.00 0.00 0.00 0.00 0.00 0.00 0.00 0.00 0.00 0.00
0.02 0.04 0.03 0.03 0.05 0.06 0.04 0.02 0.03 0.02 0.00 0.00 0.00 0.00 0.00 0.00 0.00 0.00 0.00 0.00 0.00 0.00 0.00 0.00 0.00 0.00 0.00 0.00 0.00 0.00 0.00 0.00 0.00 0.00 0.00 0.00 0.00 0.00 0.00 0.00 0.00 0.00 0.00 0.00
0.05 0.06 0.03 0.03 0.05 0.02 0.01 0.03 0.01 0.00 0.00 0.00 0.00 0.00 0.00 0.00 0.00 0.00 0.00 0.00 0.00 0.00 0.00 0.00 0.00 0.00 0.00 0.00 0.00 0.01 0.01 0.01 0.01 0.00 0.00 0.00 0.00 0.00 0.00 0.00 0.00 0.00 0.00 0.00
0.03 0.03 0.04 0.03 0.00 0.01 0.00 0.00 0.00 0.00 0.00 0.00 0.00 0.00 0.00 0.00 0.00 0.00 0.00 0.00 0.00 0.00 0.00 0.00 0.00 0.00 0.01 0.01 0.01 0.01 0.00 0.00 0.00 0.00 0.00 0.00 0.00 0.00 0.00 0.00 0.00 0.00 0.00 0.00
0.00 0.00 0.00 0.00 0.01 0.01 0.00 0.00 0.00 0.00 0.00 0.00 0.00 0.00 0.00 0.00 0.00 0.00 0.00 0.00 0.00 0.00 0.00 0.00 0.00 0.00 0.00 0.01 0.01 0.00 0.00 0.00 0.00 0.00 0.00 0.00 0.00 0.00 0.00 0.00 0.00 0.00 0.00 0.00
0.00 0.01 0.02 0.03 0.04 0.04 0.01 0.00 0.00 0.00 0.00 0.00 0.00 0.00 0.00 0.00 0.00 0.00 0.00 0.00 0.00 0.00 0.00 0.00 0.00 0.00 0.00 0.01 0.01 0.01 0.01 0.01 0.01 0.00 0.00 0.00 0.00 0.00 0.00 0.00 0.00 0.00 0.00 0.00
MSLP
1004.11 1003.90 1002.90 1002.33 1001.83 1001.47 1000.52 999.75 999.18 998.57 998.27 998.57 998.72 998.87 999.01 998.92 998.95 999.05 999.34 999.74 1000.02 1000.12 1000.29 1000.50 1001.07 1001.48 1001.97 1002.48 1003.26 1004.02 1004.41 1004.43 1004.45 1004.23 1004.66 1005.12 1005.11 1005.27 1005.30 1005.44 1005.48 1005.66 1005.95 1006.52
1003.92 1003.00 1002.60 1001.87 1001.28 1000.89 1000.48 1000.19 999.98 999.63 999.20 999.05 998.92 998.78 998.98 999.18 998.85 998.65 998.62 998.76 999.10 999.44 999.87 1000.36 1000.75 1001.21 1001.70 1002.36 1003.00 1003.67 1004.08 1004.36 1004.53 1004.60 1004.42 1004.20 1004.30 1004.34 1004.33 1004.53 1004.79 1004.97 1005.38 1005.96
1002.92 1002.12 1001.57 1001.35 1001.31 1000.98 1000.66 1000.73 1000.71 1000.41 1000.00 999.48 999.18 998.83 999.12 998.89 998.40 998.24 998.10 998.22 998.58 998.99 999.36 999.81 1000.25 1000.72 1001.37 1002.08 1002.80 1003.28 1003.65 1003.92 1004.24 1004.53 1004.47 1004.50 1004.07 1003.96 1003.99 1003.46 1003.43 1003.95 1004.39 1004.79
1002.27 1001.68 1001.19 1000.99 1001.18 1001.44 1000.85 1000.79 1000.90 1000.79 1000.59 999.97 999.86 998.45 998.25 997.70 997.10 997.10 997.30 997.54 997.98 998.54 999.13 999.52 1000.06 1000.81 1001.61 1002.26 1002.75 1003.17 1003.62 1003.85 1004.05 1004.30 1004.56 1004.55 1004.52 1004.20 1003.71 1003.30 1003.00 1003.11 1003.04 1003.13
1002.14 1001.41 1001.01 1000.85 1001.05 1001.05 1000.82 1001.03 1001.05 1000.88 1000.55 1000.33 1000.01 999.22 998.17 997.53 996.72 996.31 996.20 996.46 997.01 997.76 998.50 999.66 1000.47 1001.34 1001.96 1002.61 1003.07 1003.51 1003.85 1003.75 1003.76 1004.16 1004.59 1004.71 1004.49 1004.12 1003.80 1003.46 1003.02 1002.63 1002.28 1002.53
1002.93 1002.22 1001.43 1000.77 1000.96 1001.11 1001.33 1001.53 1001.42 1001.37 1001.41 1000.40 1000.28 999.42 998.01 996.98 995.98 995.35 995.04 995.45 996.40 997.45 999.00 1000.11 1001.11 1001.85 1002.42 1002.76 1003.23 1003.73 1004.16 1004.30 1004.23 1004.19 1004.36 1004.52 1004.58 1004.40 1004.15 1003.75 1003.38 1002.55 1001.72 1001.89
1003.63 1002.83 1002.25 1001.85 1001.72 1001.83 1002.04 1002.28 1002.04 1001.78 1001.20 999.94 999.66 998.40 996.93 996.18 995.74 995.75 995.84 996.34 997.48 998.61 999.51 1000.38 1001.26 1001.98 1002.53 1002.91 1003.31 1003.80 1004.18 1004.42 1004.41 1004.40 1004.36 1004.24 1004.15 1004.11 1004.01 1003.79 1003.30 1002.69 1002.04 1001.59
1003.70 1003.14 1002.53 1002.16 1002.00 1002.12 1002.27 1002.65 1002.78 1002.54 1002.21 1000.93 1000.15 998.56 997.42 996.91 996.66 996.40 996.78 997.01 998.22 999.37 1000.05 1000.91 1001.63 1002.17 1002.47 1002.86 1003.32 1003.84 1004.28 1004.62 1004.63 1004.59 1004.33 1004.01 1003.94 1003.91 1003.73 1003.47 1003.10 1002.51 1002.05 1001.69
1004.45 1003.60 1003.38 1004.14 1003.40 1003.48 1003.15 1003.41 1004.16 1004.34 1004.79 1003.40 1002.03 999.93 998.45 998.17 997.62 997.12 996.47 997.66 998.68 999.84 1000.76 1001.44 1001.85 1002.13 1002.50 1002.87 1003.27 1003.74 1004.09 1004.28 1004.60 1004.75 1004.39 1003.94 1003.65 1003.48 1003.36 1003.15 1002.94 1002.51 1002.20 1001.85
1005.75 1005.21 1005.03 1004.61 1004.43 1004.24 1004.35 1004.90 1005.74 1006.82 1006.03 1004.07 1002.04 1000.65 999.62 999.81 999.38 998.92 999.19 999.16 999.75 1000.35 1001.18 1001.64 1001.94 1002.24 1002.52 1002.76 1003.08 1003.39 1003.56 1003.82 1004.18 1004.47 1004.38 1004.06 1003.85 1003.54 1002.94 1002.70 1002.52 1002.12 1001.84 1001.65
1006.75 1006.70 1006.06 1005.70 1005.20 1004.84 1004.86 1005.42 1006.56 1007.02 1006.78 1005.64 1003.80 1001.88 1000.65 1001.10 1001.23 1000.88 1000.73 1000.66 1000.85 1001.48 1001.93 1002.16 1002.20 1002.26 1002.52 1002.78 1002.92 1003.10 1003.11 1003.38 1003.72 1003.92 1003.91 1003.93 1003.87 1003.49 1003.16 1002.70 1002.11 1001.76 1001.53 1001.22
1007.74 1008.06 1007.07 1006.16 1005.63 1005.11 1004.86 1005.18 1005.88 1007.11 1007.04 1006.14 1005.04 1003.52 1002.37 1002.01 1002.11 1002.05 1001.84 1001.61 1001.91 1002.09 1002.23 1002.31 1002.33 1002.43 1002.71 1002.86 1002.93 1003.00 1002.93 1003.07 1003.41 1003.52 1003.63 1003.44 1003.46 1003.46 1003.24 1002.94 1002.47 1001.61 1001.04 1000.60
1009.00 1008.64 1008.03 1006.59 1005.37 1006.20 1006.51 1007.20 1007.49 1007.83 1007.58 1006.34 1005.85 1002.90 1002.43 1002.64 1003.30 1003.56 1003.10 1002.75 1002.74 1002.43 1002.26 1002.29 1002.39 1002.59 1002.48 1002.52 1002.59 1002.77 1002.95 1003.05 1003.23 1003.36 1003.49 1003.37 1003.18 1003.10 1003.01 1002.72 1002.38 1001.98 1001.36 1000.83
1010.35 1009.77 1009.42 1008.54 1007.76 1007.33 1007.15 1007.26 1007.75 1008.23 1007.60 1006.23 1005.03 1003.30 1002.66 1002.54 1003.25 1003.11 1002.86 1003.11 1003.06 1002.48 1002.34 1002.28 1002.20 1002.21 1002.29 1002.37 1002.44 1002.55 1002.72 1002.90 1003.09 1003.17 1003.22 1003.16 1003.12 1002.94 1002.69 1002.36 1002.17 1001.62 1001.24 1000.74
1010.58 1010.39 1009.87 1008.90 1008.28 1007.76 1006.81 1006.17 1005.96 1005.66 1005.23 1004.91 1003.43 1002.98 1002.29 1002.11 1002.04 1002.02 1002.68 1003.09 1002.96 1002.67 1002.52 1002.59 1002.38 1002.25 1002.17 1002.09 1002.15 1002.21 1002.18 1002.44 1002.82 1002.96 1002.99 1002.92 1002.87 1002.66 1002.36 1002.02 1001.63 1001.19 1000.84 1000.40
1010.73 1010.65 1010.19 1009.07 1008.23 1007.21 1006.09 1005.28 1004.50 1003.96 1003.47 1002.96 1002.44 1001.92 1001.71 1001.46 1001.48 1002.28 1003.04 1003.06 1002.69 1002.47 1002.36 1002.28 1002.17 1002.10 1002.06 1002.19 1002.46 1002.63 1002.57 1002.37 1002.43 1002.48 1002.40 1002.39 1002.25 1002.09 1001.89 1001.70 1001.21 1000.83 1000.40 1000.06
1010.96 1011.23 1010.94 1009.37 1008.22 1007.46 1005.42 1003.91 1003.21 1002.91 1002.69 1002.35 1002.13 1001.96 1002.02 1002.03 1002.83 1003.16 1003.13 1002.74 1002.76 1002.71 1002.53 1002.48 1002.59 1002.61 1002.66 1002.76 1002.83 1002.87 1002.75 1002.50 1002.59 1002.46 1002.25 1002.10 1002.10 1001.97 1001.85 1001.10 1000.66 1000.23 999.99 999.85
1010.43 1011.24 1011.68 1010.30 1008.98 1006.65 1004.30 1003.88 1003.42 1002.87 1002.86 1002.90 1003.27 1002.38 1002.50 1002.94 1003.20 1003.21 1003.11 1002.83 1003.33 1003.61 1003.67 1003.57 1003.46 1003.38 1003.27 1002.98 1002.71 1002.71 1002.84 1002.76 1002.41 1002.46 1002.27 1002.16 1001.98 1001.79 1001.54 1001.12 1000.57 999.88 999.47 999.24
1009.72 1010.87 1011.58 1010.68 1008.84 1006.67 1004.87 1004.39 1004.90 1005.33 1004.02 1004.06 1004.42 1004.28 1003.74 1003.56 1003.36 1002.82 1002.66 1003.28 1003.59 1003.82 1003.91 1003.77 1003.67 1003.51 1003.48 1003.36 1003.11 1002.88 1002.65 1002.40 1002.23 1001.95 1001.67 1001.76 1001.81 1001.62 1001.28 1000.88 1000.16 999.62 999.17 998.67
1008.96 1010.28 1011.66 1010.82 1009.61 1007.30 1005.97 1005.66 1005.48 1005.58 1005.14 1005.50 1005.32 1004.96 1004.55 1004.28 1003.82 1003.17 1003.51 1003.75 1003.60 1003.73 1003.68 1003.39 1003.32 1003.21 1003.27 1002.91 1002.74 1002.36 1002.00 1001.69 1001.40 1001.28 1001.02 1001.06 1001.04 1000.80 1000.48 1000.23 999.82 999.58 999.09 997.81
1009.45 1010.38 1010.72 1010.70 1009.70 1007.56 1006.57 1006.56 1005.86 1005.62 1006.60 1006.09 1005.85 1005.55 1005.12 1004.78 1004.68 1004.19 1004.00 1003.56 1003.41 1003.16 1002.88 1002.96 1002.96 1003.04 1003.27 1003.29 1003.10 1002.53 1002.02 1001.07 1000.71 1000.51 1000.34 1000.17 1000.14 1000.00 999.76 999.32 999.04 998.83 998.69 998.33
1008.92 1009.50 1009.76 1009.66 1008.76 1007.63 1007.35 1006.51 1006.33 1006.71 1006.32 1006.13 1005.94 1005.66 1005.17 1005.00 1004.68 1004.28 1003.91 1003.68 1003.44 1003.22 1002.99 1002.81 1002.98 1003.37 1003.70 1003.60 1003.10 1001.93 1001.53 1001.09 1000.42 999.97 999.65 999.37 999.26 999.00 998.59 998.33 998.21 998.14 997.93 997.70
1008.61 1008.80 1008.86 1008.74 1007.44 1007.24 1007.19 1007.10 1006.92 1006.61 1006.22 1005.95 1005.70 1005.35 1005.29 1005.06 1004.73 1004.46 1004.03 1003.75 1003.36 1002.87 1002.61 1003.19 1003.64 1003.40 1003.25 1003.10 1002.57 1001.85 1000.47 1000.23 999.82 999.18 998.77 998.47 998.18 997.79 997.55 997.34 997.28 997.29 997.27 996.99
1008.18 1008.23 1008.18 1007.95 1006.86 1006.46 1006.14 1006.67 1006.65 1006.22 1006.14 1005.75 1005.40 1005.48 1005.41 1005.17 1004.91 1004.45 1003.93 1003.47 1003.09 1002.90 1003.11 1003.37 1003.67 1003.20 1002.63 1002.49 1001.99 1001.23 1000.38 999.89 999.26 998.47 997.93 997.60 997.14 996.78 996.48 996.38 996.32 996.32 996.30 996.28
1008.67 1007.97 1007.39 1006.71 1006.31 1006.60 1006.07 1006.75 1006.29 1005.96 1005.93 1005.61 1005.67 1005.64 1005.56 1005.35 1004.77 1004.47 1003.93 1003.64 1003.51 1003.44 1003.61 1003.94 1003.65 1002.90 1002.12 1001.61 1000.94 1000.38 999.81 999.20 998.30 997.62 997.04 996.66 996.47 996.10 995.59 995.40 995.49 995.59 995.45 995.41
1007.72 1007.88 1007.74 1007.34 1006.83 1007.24 1006.79 1006.39 1006.13 1006.01 1005.65 1005.76 1005.68 1005.65 1005.58 1005.27 1004.84 1004.53 1004.21 1003.92 1003.87 1003.70 1003.89 1003.71 1003.11 1002.37 1001.47 1000.75 999.91 999.23 998.68 998.17 997.39 996.66 996.17 995.78 995.49 995.20 994.90 994.64 994.49 994.61 994.71 994.79
Thickness
5694 5682 5683 5700 5710 5715 5721 5725 5724 5745 5761 5744 5733 5733 5741 5753 5754 5749 5750 5751 5753 5754 5762 5765 5764 5762 5759 5758 5755 5750 5750 5751 5754 5755 5750 5747 5747 5751 5752 5753 5755 5755 5753 5749
5678 5675 5699 5712 5715 5714 5716 5710 5709 5726 5738 5734 5729 5725 5734 5741 5746 5750 5751 5751 5750 5751 5753 5753 5752 5751 5747 5742 5743 5740 5741 5742 5740 5739 5744 5746 5746 5747 5748 5751 5750 5750 5747 5746
5672 5692 5709 5703 5699 5697 5702 5695 5696 5700 5719 5727 5720 5709 5716 5732 5742 5746 5750 5752 5751 5748 5745 5746 5745 5742 5738 5733 5732 5739 5734 5733 5734 5733 5732 5733 5738 5738 5737 5744 5746 5747 5746 5744
5683 5702 5696 5695 5687 5691 5680 5706 5700 5696 5691 5678 5714 5683 5713 5730 5736 5740 5743 5745 5746 5744 5744 5744 5738 5727 5724 5723 5727 5727 5727 5723 5723 5724 5721 5718 5716 5717 5727 5732 5740 5742 5745 5746
5676 5688 5691 5684 5686 5696 5685 5701 5694 5694 5688 5686 5690 5680 5701 5727 5725 5737 5745 5746 5744 5743 5740 5724 5720 5717 5717 5718 5713 5709 5709 5714 5716 5713 5710 5707 5707 5711 5715 5720 5725 5729 5735 5738
5669 5689 5688 5691 5695 5694 5692 5685 5686 5685 5678 5660 5679 5683 5692 5714 5731 5745 5754 5752 5741 5734 5720 5714 5712 5708 5705 5705 5700 5697 5693 5692 5698 5702 5699 5695 5694 5696 5697 5701 5705 5718 5728 5726
5652 5662 5678 5683 5670 5681 5676 5664 5646 5647 5655 5658 5699 5693 5707 5734 5738 5734 5736 5733 5722 5713 5708 5702 5696 5696 5692 5687 5685 5681 5682 5679 5680 5683 5686 5685 5684 5685 5686 5688 5694 5700 5708 5715
5631 5632 5662 5677 5668 5657 5660 5658 5640 5621 5634 5654 5682 5663 5692 5722 5728 5731 5728 5725 5709 5699 5697 5687 5686 5684 5678 5677 5672 5669 5667 5663 5664 5665 5668 5673 5673 5672 5674 5677 5681 5688 5694 5699
5623 5633 5658 5643 5657 5653 5645 5636 5652 5626 5622 5625 5648 5678 5703 5703 5702 5712 5717 5708 5697 5683 5676 5674 5676 5671 5667 5664 5659 5656 5655 5651 5650 5649 5651 5654 5659 5660 5660 5664 5667 5673 5679 5685
5624 5612 5632 5639 5644 5647 5636 5641 5604 5597 5585 5608 5643 5655 5664 5660 5671 5681 5679 5678 5678 5670 5664 5665 5663 5658 5657 5654 5649 5647 5645 5641 5639 5634 5633 5637 5640 5642 5647 5652 5655 5661 5666 5670
5617 5608 5616 5625 5621 5619 5625 5615 5610 5607 5607 5588 5604 5633 5674 5646 5650 5654 5658 5660 5655 5650 5646 5645 5643 5646 5646 5641 5636 5632 5629 5627 5625 5625 5624 5620 5619 5625 5627 5635 5642 5648 5652 5656
5607 5592 5591 5608 5626 5632 5630 5623 5620 5583 5590 5601 5598 5594 5650 5637 5640 5641 5642 5644 5641 5639 5636 5631 5629 5629 5627 5627 5624 5620 5616 5611 5611 5610 5607 5611 5611 5608 5608 5612 5620 5631 5638 5645
5591 5584 5576 5593 5617 5605 5587 5587 5586 5580 5580 5577 5573 5609 5642 5625 5615 5617 5617 5622 5624 5625 5622 5620 5617 5614 5611 5607 5608 5608 5602 5599 5597 5594 5592 5592 5596 5596 5595 5597 5603 5609 5616 5625
5572 5574 5566 5561 5573 5582 5578 5580 5574 5564 5552 5567 5578 5600 5617 5619 5597 5608 5611 5607 5605 5610 5611 5609 5606 5602 5598 5595 5593 5589 5589 5585 5582 5581 5578 5577 5577 5579 5583 5585 5588 5596 5601 5609
5563 5553 5563 5568 5567 5567 5575 5580 5586 5582 5587 5574 5598 5593 5610 5610 5611 5611 5594 5598 5596 5596 5596 5592 5590 5587 5587 5584 5581 5578 5575 5573 5569 5566 5564 5564 5564 5566 5570 5574 5579 5585 5590 5598
5553 5544 5550 5553 5562 5564 5565 5580 5588 5593 5597 5597 5601 5597 5612 5609 5608 5594 5586 5583 5586 5589 5587 5585 5584 5580 5574 5569 5563 5560 5558 5558 5557 5554 5553 5553 5554 5556 5559 5563 5568 5573 5580 5585
5537 5528 5528 5538 5555 5549 5561 5582 5590 5592 5594 5595 5587 5594 5597 5589 5577 5575 5575 5582 5579 5575 5576 5574 5569 5564 5558 5551 5546 5541 5540 5540 5537 5536 5537 5539 5539 5540 5544 5553 5559 5565 5569 5571
5537 5526 5517 5523 5538 5538 5578 5585 5585 5589 5590 5583 5578 5590 5584 5576 5574 5575 5578 5573 5563 5561 5556 5553 5550 5544 5541 5538 5534 5528 5522 5519 5520 5518 5520 5521 5523 5526 5530 5536 5544 5552 5558 5563
5546 5528 5512 5518 5535 5556 5571 5572 5562 5545 5566 5569 5562 5563 5567 5567 5567 5573 5573 5564 5557 5549 5544 5540 5536 5532 5525 5520 5516 5511 5508 5503 5502 5505 5509 5509 5509 5512 5517 5522 5532 5539 5546 5554
5547 5533 5505 5520 5517 5531 5551 5556 5560 5555 5547 5552 5552 5552 5553 5555 5546 5560 5559 5553 5549 5543 5538 5535 5532 5527 5517 5512 5505 5502 5500 5495 5492 5493 5497 5500 5502 5506 5511 5515 5521 5526 5532 5547
5523 5515 5511 5508 5512 5538 5547 5546 5553 5540 5536 5541 5542 5542 5544 5543 5542 5546 5546 5546 5543 5540 5538 5533 5527 5516 5504 5494 5487 5483 5484 5488 5485 5486 5490 5495 5498 5501 5505 5511 5516 5519 5522 5528
5524 5519 5515 5517 5518 5524 5535 5542 5535 5531 5538 5538 5537 5536 5539 5540 5540 5539 5539 5535 5532 5530 5529 5525 5516 5503 5490 5481 5475 5478 5472 5474 5478 5482 5487 5491 5494 5499 5505 5509 5512 5514 5517 5522
5521 5521 5517 5519 5531 5532 5532 5529 5529 5533 5534 5535 5534 5537 5533 5533 5533 5531 5530 5528 5527 5528 5525 5511 5496 5490 5484 5476 5472 5469 5478 5475 5477 5482 5485 5488 5492 5498 5502 5505 5508 5510 5511 5517
5524 5525 5519 5518 5532 5533 5535 5526 5525 5532 5531 5532 5534 5531 5529 5526 5524 5524 5525 5525 5525 5521 5511 5499 5485 5480 5476 5470 5468 5468 5472 5473 5475 5481 5484 5487 5492 5496 5500 5502 5503 5504 5508 5510
5510 5517 5520 5526 5528 5521 5527 5517 5523 5526 5526 5529 5528 5526 5521 5518 5520 5517 5519 5518 5514 5507 5496 5482 5475 5472 5471 5467 5467 5467 5469 5472 5478 5482 5485 5487 5487 5490 5494 5495 5495 5495 5501 5504
5514 5507 5504 5502 5511 5504 5509 5515 5519 5518 5523 5523 5523 5519 5515 5511 5513 5513 5511 5508 5501 5497 5485 5476 5475 5474 5475 5473 5475 5477 5478 5478 5481 5483 5482 5483 5483 5483 5483 5485 5487 5486 5488 5492